User: anonymous   Login
Location: Fort Wayne
(41.1310°N, 85.1290°W)
Time: 04:41:59
(UTC-04:00)
Language:

Cosmos 2082 - Orbit

View from above orbital plane
View from above orbital plane
View from above satellite
View from above satellite

Ground track
Ground track

The orbit data is extracted from the following two-line orbital elements,

1 20624U 90046A   16181.59868400  .00000201  00000-0  12989-3 0  9995
2 20624  71.0403 232.5344 0015958 212.1694 147.8456 14.14204651347341
Epoch (UTC): 29 June 2016 14:22:06
Eccentricity: 0.0015958
inclination: 71.0403°
perigee height: 833 km
apogee height: 856 km
right ascension of ascending node: 232.5344°
argument of perigee: 212.1694°
revolutions per day: 14.14204651
mean anomaly at epoch: 147.8456°
orbit number at epoch: 34734

The dashed part of the orbit path shows where the satellite is in the earth's shadow,  

DLR